[[{"header":{"parameterUnit":"m.s-1","parameterCategory":1,"la1":30.2991,"la2":30.254,"lo1":-89.0895,"lo2":-89.0444,"dy":0.0017,"dx":0.0017,"nx":28,"ny":28,"refTime":"2025-01-23T03:00:00:Z","depth":0,"parameterNumber":2,"parameterNumberName":"U-component_of_WINDS"},"data":[0,0,0,0,0,0,0,0,0,0,0,0,0,0,0,0,0,0,0,0,0,0,0,0,0,0,0,0,0,0,0,0,0,0,0,0,0,0,0,0,0,0,0,0,0,0,0,0,0,0,0,0,0,0,0,0,0,0,2.1516,2.1515,0,2.1471,2.147,2.147,2.1401,2.1399,2.1398,2.1397,2.135,2.135,2.135,0,0,0,0,0,0,0,0,0,0,0,0,0,2.1542,2.1541,2.1516,2.1515,2.1515,2.1471,2.147,2.147,2.1401,2.1399,2.1398,2.1396,2.135,2.135,2.135,0,0,0,0,0,0,0,0,0,0,0,0,0,2.1517,2.1541,2.1516,2.1475,2.1471,2.1471,2.147,2.1469,2.1401,2.1399,2.1397,2.1396,2.135,2.135,2.1349,2.1385,0,0,2.1349,2.1349,0,0,0,0,0,0,0,0,2.1518,2.1516,2.1482,2.1478,2.1473,2.1439,2.1462,2.1441,2.1402,2.1428,2.1397,2.1395,2.1381,2.1378,2.1374,2.1383,2.1381,2.1349,2.1349,2.1349,2.1349,0,0,0,0,0,0,0,2.152,2.1517,2.1498,2.1481,2.1476,2.1459,2.1453,2.1458,2.1415,2.1425,2.142,2.1416,2.1378,2.1374,2.1372,2.138,2.1349,2.1349,2.1349,2.1349,2.1417,2.1419,0,0,0,0,0,0,2.1528,2.1519,2.1499,2.1496,2.1492,2.146,2.1454,2.1452,2.1415,2.1407,2.1417,2.1413,2.1375,2.1372,2.137,2.141,2.1349,2.1349,2.1349,2.1415,2.1417,2.1419,0,0,0,0,0,0,2.1529,2.1527,2.1501,2.1507,2.1502,2.1461,2.146,2.1452,2.1448,2.1409,2.1401,2.1421,2.1374,2.137,2.1382,2.1407,2.1349,2.1348,2.1413,2.1416,2.1418,2.1489,0,0,0,0,0,0,2.153,2.1528,2.1541,2.1507,2.1502,2.1514,2.1462,2.1453,2.1448,2.1441,2.141,2.1403,2.1372,2.1383,2.1382,2.1406,2.1348,2.141,2.1414,2.1418,2.1485,2.1494,2.1503,0,0,0,0,0,2.1531,2.1562,2.1542,2.154,2.1518,2.1516,2.1513,2.1477,2.145,2.1463,2.1438,2.1404,2.1405,2.1385,2.1383,2.1407,2.1409,2.1413,2.1417,2.1481,2.1492,2.1502,0,0,0,0,0,0,2.1599,2.1557,2.1534,2.1556,2.154,2.1504,2.152,2.149,2.1481,2.1476,2.1431,2.1424,2.1442,2.1425,2.1404,2.144,2.1401,2.1406,2.145,2.1461,2.147,2.1473,2.1348,0,0,0,0,0,2.1617,2.1619,2.1582,2.1605,2.1598,2.1561,2.1558,2.1532,2.1514,2.1507,2.1482,2.1466,2.1462,2.1461,2.1455,2.1482,2.1474,2.1498,2.1507,2.1514,2.1519,2.1532,2.1542,2.1434,2.1434,2.1434,0,0,2.1653,2.1631,2.1635,2.1618,2.1603,2.1606,2.1555,2.1561,2.1563,2.1507,2.1517,2.1499,2.1477,2.1497,2.1504,2.1484,2.1547,2.152,2.1526,2.1526,2.1537,2.1548,2.1557,2.1437,2.1436,2.1436,0,0,2.1721,2.1704,2.1721,2.1707,2.1685,2.166,2.1664,2.1633,2.1619,2.1628,2.1587,2.1588,2.1583,2.1569,2.1562,2.1625,2.1594,2.1625,2.1672,2.1685,2.1694,2.1701,2.1724,2.1732,2.1629,2.1629,2.1629,0,2.1769,2.1773,2.1734,2.1742,2.1736,2.1687,2.1703,2.1692,2.1669,2.1665,2.1643,2.1636,2.1617,2.1633,2.1649,2.1645,2.1648,2.1628,2.1696,2.1703,2.1709,2.173,2.1739,2.1633,2.1633,2.1632,2.1632,0,2.1833,2.1836,2.1852,2.1832,2.1828,2.184,2.1803,2.1804,2.1778,2.1755,2.1765,2.1742,2.1731,2.1733,2.1707,2.1745,2.1733,2.1704,2.1664,2.1724,2.1743,2.1751,2.1639,2.1637,2.1636,2.1635,0,0,2.1942,2.1901,2.1908,2.1898,2.187,2.1871,2.1882,2.1872,2.1873,2.1859,2.1866,2.1863,2.1836,2.1828,2.18,2.1812,2.1864,2.1781,2.178,2.1797,2.1904,2.1927,2.1937,2.1843,2.1844,2.1845,2.1906,0,2.2005,2.2021,2.1986,2.201,2.2013,2.1966,2.1975,2.1959,2.1938,2.1936,2.1913,2.1912,2.1876,2.1871,2.188,2.1856,2.1885,2.1851,2.1849,2.185,2.1856,2.1946,2.197,2.2028,2.1913,2.1915,2.1915,0,2.208,2.207,2.2095,2.2066,2.2065,2.2074,2.2062,2.2061,2.2042,2.2026,2.2017,2.1985,2.1993,2.1955,2.1965,2.1943,2.194,2.1928,2.1929,2.1928,2.1886,2.1947,2.2046,2.2055,2.1927,2.1926,2.1925,0,2.2158,2.2151,2.2164,2.2157,2.2124,2.2131,2.2117,2.2096,2.2092,2.2082,2.2079,2.2069,2.2064,2.2057,2.2023,2.1999,2.2038,2.1997,2.2024,2.2025,2.2034,2.2034,2.2134,2.2033,2.2033,2.2033,2.2033,0,2.2231,2.2248,2.2199,2.2207,2.2225,2.2185,2.2203,2.2185,2.2167,2.2171,2.2129,2.2134,2.2089,2.2088,2.2062,2.2074,2.2072,2.2059,2.2052,2.2063,2.2065,2.206,2.2056,2.2035,2.2035,2.2034,2.2034,0,2.2321,2.2289,2.2301,2.2268,2.226,2.2275,2.2246,2.2253,2.2229,2.2235,2.2234,2.2197,2.2194,2.216,2.215,2.2132,2.2155,2.214,2.2162,2.2157,2.2186,2.2184,2.2287,2.2298,2.219,2.2191,2.2192,0,2.237,2.2382,2.235,2.235,2.2339,2.2339,2.2335,2.2296,2.2294,2.2273,2.2282,2.2276,2.2269,2.2267,2.2239,2.2231,2.2215,2.2252,2.2214,2.2225,2.2216,2.2216,2.2217,2.226,2.2262,2.2263,2.2264,0,2.246,2.2444,2.244,2.243,2.2427,2.2418,2.2406,2.2408,2.2365,2.2364,2.2361,2.2356,2.2346,2.2341,2.2328,2.2313,2.2281,2.2276,2.2282,2.2293,2.2305,2.2299,2.2184,2.2274,2.2273,2.2272,2.2271,2.2271,2.2531,2.2539,2.2519,2.2516,2.2503,2.2493,2.2497,2.2475,2.2472,2.2461,2.2438,2.2439,2.2419,2.2398,2.2386,2.2386,2.2367,2.2375,2.2377,2.238,2.2386,2.2306,2.2383,2.2383,2.2383,2.2382,2.2382,0,2.2619,2.2604,2.2601,2.2586,2.2584,2.2555,2.254,2.254,2.2541,2.2526,2.252,2.2517,2.2511,2.2483,2.2475,2.248,2.2465,2.2479,2.2478,2.2475,2.2404,2.2399,2.2491,2.2491,2.2491,2.2491,2.2491,2.2491,2.2665,2.2678,2.2659,2.2665,2.2649,2.265,2.2644,2.2635,2.2622,2.262,2.2616,2.2598,2.2577,2.2566,2.256,2.2552,2.2551,2.2569,2.2556,2.249,2.248,2.247,2.2466,2.2569,2.257,2.2628,2.2628,2.2629]},{"header":{"parameterUnit":"m.s-1","parameterCategory":1,"la1":30.2991,"la2":30.254,"lo1":-89.0895,"lo2":-89.0444,"dy":0.0017,"dx":0.0017,"nx":28,"ny":28,"refTime":"2025-01-23T03:00:00:Z","depth":0,"parameterNumber":3,"parameterNumberName":"V-component_of_WINDS"},"data":[0,0,0,0,0,0,0,0,0,0,0,0,0,0,0,0,0,0,0,0,0,0,0,0,0,0,0,0,0,0,0,0,0,0,0,0,0,0,0,0,0,0,0,0,0,0,0,0,0,0,0,0,0,0,0,0,0,0,-1.7021,-1.7022,0,-1.7101,-1.7102,-1.7103,-1.7074,-1.7072,-1.707,-1.7069,-1.7151,-1.7155,-1.7159,0,0,0,0,0,0,0,0,0,0,0,0,0,-1.6845,-1.6849,-1.7021,-1.7022,-1.7023,-1.7101,-1.7102,-1.7103,-1.7074,-1.7072,-1.707,-1.7068,-1.715,-1.7154,-1.7159,0,0,0,0,0,0,0,0,0,0,0,0,0,-1.6923,-1.685,-1.7021,-1.7018,-1.7019,-1.71,-1.7102,-1.7103,-1.7075,-1.7072,-1.7069,-1.7067,-1.7148,-1.7154,-1.716,-1.7249,0,0,-1.7177,-1.718,0,0,0,0,0,0,0,0,-1.6919,-1.693,-1.7017,-1.7018,-1.7019,-1.7075,-1.707,-1.7152,-1.7075,-1.7053,-1.7069,-1.7066,-1.7128,-1.7135,-1.7156,-1.7253,-1.7256,-1.7178,-1.7181,-1.7184,-1.7186,0,0,0,0,0,0,0,-1.6913,-1.6926,-1.7052,-1.7019,-1.702,-1.7013,-1.7021,-1.7085,-1.7105,-1.7055,-1.7053,-1.7063,-1.7128,-1.7151,-1.7158,-1.7258,-1.7178,-1.7183,-1.7186,-1.7189,-1.7434,-1.7437,0,0,0,0,0,0,-1.6907,-1.6922,-1.705,-1.7055,-1.6961,-1.7019,-1.7028,-1.706,-1.7104,-1.7108,-1.7065,-1.7061,-1.7142,-1.7151,-1.7161,-1.727,-1.7184,-1.7189,-1.7193,-1.7431,-1.7435,-1.7438,0,0,0,0,0,0,-1.6904,-1.6919,-1.7047,-1.6988,-1.7004,-1.7025,-1.7061,-1.7063,-1.7085,-1.7112,-1.7115,-1.7085,-1.714,-1.7152,-1.7228,-1.7272,-1.7192,-1.7197,-1.7428,-1.7432,-1.7437,-1.7488,0,0,0,0,0,0,-1.6899,-1.6918,-1.6952,-1.6989,-1.7007,-1.7112,-1.7063,-1.7066,-1.7095,-1.7091,-1.7131,-1.7135,-1.7139,-1.7219,-1.7234,-1.7279,-1.7202,-1.7424,-1.743,-1.7435,-1.7483,-1.7494,-1.7504,0,0,0,0,0,-1.6893,-1.6963,-1.6953,-1.6969,-1.7049,-1.7115,-1.7125,-1.7128,-1.7099,-1.7134,-1.7151,-1.7134,-1.7265,-1.7227,-1.7243,-1.7291,-1.7421,-1.7428,-1.7435,-1.7478,-1.7492,-1.7504,0,0,0,0,0,0,-1.693,-1.6967,-1.6958,-1.7042,-1.7075,-1.711,-1.7153,-1.7142,-1.7185,-1.718,-1.7182,-1.7191,-1.7269,-1.7287,-1.7245,-1.7381,-1.7339,-1.7349,-1.7366,-1.738,-1.739,-1.7385,-1.7206,0,0,0,0,0,-1.6948,-1.6998,-1.7028,-1.7099,-1.7116,-1.7132,-1.7161,-1.716,-1.7195,-1.7209,-1.7232,-1.7267,-1.7316,-1.7349,-1.7395,-1.7485,-1.7494,-1.7526,-1.7536,-1.7545,-1.7554,-1.7605,-1.762,-1.7461,-1.7461,-1.7461,0,0,-1.6985,-1.7012,-1.7043,-1.7107,-1.7133,-1.7186,-1.7144,-1.7201,-1.724,-1.7218,-1.7291,-1.7309,-1.7348,-1.7432,-1.747,-1.7449,-1.76,-1.7554,-1.756,-1.7565,-1.7614,-1.7629,-1.7642,-1.7466,-1.7465,-1.7464,0,0,-1.7081,-1.7106,-1.7169,-1.7196,-1.7236,-1.7246,-1.7262,-1.7298,-1.731,-1.7383,-1.7368,-1.7415,-1.7499,-1.7529,-1.7554,-1.7663,-1.765,-1.7678,-1.7734,-1.7783,-1.7796,-1.7807,-1.7848,-1.7862,-1.7687,-1.7687,-1.7687,0,-1.7123,-1.7201,-1.7202,-1.7261,-1.729,-1.7273,-1.7338,-1.7364,-1.7418,-1.7439,-1.7415,-1.7522,-1.7547,-1.7638,-1.7665,-1.7686,-1.7704,-1.7674,-1.7794,-1.7805,-1.7816,-1.7854,-1.7869,-1.7691,-1.769,-1.769,-1.769,0,-1.7251,-1.7306,-1.7352,-1.7405,-1.7439,-1.75,-1.7512,-1.7547,-1.7544,-1.7557,-1.7633,-1.7662,-1.7716,-1.7737,-1.7734,-1.7829,-1.7815,-1.7793,-1.7751,-1.7834,-1.7871,-1.7885,-1.7695,-1.7694,-1.7693,-1.7692,0,0,-1.7373,-1.7426,-1.7444,-1.7468,-1.7512,-1.7554,-1.7615,-1.7668,-1.7698,-1.7736,-1.7788,-1.7861,-1.7841,-1.7871,-1.7871,-1.7914,-1.8001,-1.7887,-1.7888,-1.7909,-1.8109,-1.8127,-1.8144,-1.7992,-1.7995,-1.7997,-1.8107,0,-1.7473,-1.7581,-1.7585,-1.7683,-1.7734,-1.7719,-1.7773,-1.7806,-1.782,-1.7866,-1.7882,-1.7934,-1.7903,-1.7921,-1.7963,-1.7982,-1.8042,-1.7974,-1.8042,-1.8045,-1.8035,-1.8163,-1.8181,-1.8283,-1.8121,-1.8123,-1.8125,0,-1.7605,-1.7648,-1.7751,-1.779,-1.7811,-1.7859,-1.7909,-1.7952,-1.799,-1.7998,-1.8032,-1.8026,-1.809,-1.8045,-1.8134,-1.8088,-1.8116,-1.8129,-1.8133,-1.8141,-1.8091,-1.8176,-1.8316,-1.8332,-1.8147,-1.8145,-1.8144,0,-1.7685,-1.7769,-1.7842,-1.7863,-1.7909,-1.7944,-1.7964,-1.8,-1.8031,-1.8075,-1.8096,-1.8146,-1.8173,-1.8213,-1.8221,-1.8188,-1.8311,-1.8266,-1.832,-1.832,-1.8348,-1.8346,-1.8496,-1.8363,-1.8363,-1.8363,-1.8363,0,-1.7798,-1.7863,-1.7879,-1.7924,-1.7997,-1.8001,-1.8073,-1.8091,-1.8123,-1.8172,-1.8162,-1.8208,-1.8216,-1.8265,-1.8272,-1.8346,-1.8358,-1.8367,-1.8368,-1.8369,-1.8368,-1.8388,-1.8382,-1.8367,-1.8366,-1.8365,-1.8365,0,-1.7901,-1.7914,-1.7993,-1.8031,-1.8042,-1.8094,-1.8126,-1.817,-1.8183,-1.8246,-1.8261,-1.8282,-1.8339,-1.8352,-1.8419,-1.8424,-1.8512,-1.8505,-1.8499,-1.8499,-1.8553,-1.8549,-1.8723,-1.8747,-1.8597,-1.8598,-1.8599,0,-1.7972,-1.8022,-1.8065,-1.8098,-1.812,-1.8172,-1.8205,-1.8212,-1.8246,-1.8294,-1.8333,-1.8389,-1.8434,-1.8526,-1.8548,-1.86,-1.8596,-1.8653,-1.8604,-1.8604,-1.8599,-1.8597,-1.8603,-1.8663,-1.8665,-1.8666,-1.8667,0,-1.8099,-1.8104,-1.8151,-1.8202,-1.8242,-1.8282,-1.832,-1.8348,-1.8359,-1.8399,-1.8458,-1.8493,-1.8562,-1.8619,-1.8671,-1.8693,-1.8684,-1.8683,-1.8698,-1.87,-1.8695,-1.8701,-1.8527,-1.8679,-1.8678,-1.8677,-1.8676,-1.8676,-1.819,-1.8234,-1.8272,-1.8326,-1.8356,-1.8392,-1.8436,-1.8455,-1.8504,-1.8561,-1.8562,-1.8626,-1.8665,-1.8734,-1.876,-1.8811,-1.8793,-1.8815,-1.8821,-1.8827,-1.8833,-1.8686,-1.882,-1.882,-1.8819,-1.8819,-1.8819,0,-1.8318,-1.8342,-1.8392,-1.8446,-1.8489,-1.8475,-1.8517,-1.8554,-1.8611,-1.8648,-1.8693,-1.8761,-1.8816,-1.8843,-1.8897,-1.8933,-1.893,-1.8948,-1.8946,-1.8952,-1.8844,-1.8826,-1.8949,-1.8949,-1.8949,-1.8949,-1.8949,-1.8949,-1.839,-1.8465,-1.8474,-1.8564,-1.8587,-1.865,-1.8676,-1.871,-1.8739,-1.8816,-1.8862,-1.8879,-1.8912,-1.8969,-1.902,-1.9026,-1.9048,-1.9068,-1.9072,-1.8972,-1.8959,-1.8946,-1.8929,-1.9072,-1.9072,-1.9175,-1.9176,-1.9177]}]]